カタログに戻る

FENGYUN 1C DEB

運用中SSO
NORAD 30984·DEBRIS·🇨🇳 China

打ち上げ May 10, 1999 から Taiyuan Satellite Launch Center

Loading…

次のパス (今後24時間)

TLE

最新Source: Space-Track

元期: Sep 14, 2026, 07:57 UTC

1 30984U 99025BCA 26257.33185395  .00001477  00000-0  34258-3 0  9992
2 30984  98.2373 293.5775 0123492 240.6546 118.2269 14.51998689991619

AllMySatでFENGYUN 1C DEBをリアルタイム追跡

Download on the App Store